YUNHAI 1-03

Satellite information

Favourite Embed

Satellite Type and Status

PAYLOADIN ORBIT

Key statistics

Satellite YUNHAI 1-03 at a glance.

Uptime

1020

Days in orbit

Revolutions

≈ 14.3

Per day

Orbit

SSO

Sun Synchronous Orbit

Inclination

98.5

Latest

Satellite identification and parameters

Extended collection of information and parameters for YUNHAI 1-03.

Object identification

Identified? True

Debris? False

Object name: YUNHAI 1-03

International designator: 2022-115A

Object number (NORAD): 53877

Object ID (CCSDS): 53877

Country: PEOPLES REPUBLIC OF CHINA (PRC)

Current information (Y/N): Y

RCS size: LARGE

Orbital parameters

Period: 100.505 minutes

Inclination: 98.5376 deg

SMA: 7160.657 km

Apoapsis: 785.796 km

Periapsis: 779.247 km

RAAN: 184.7895 deg

Eccentricy: 0.0004573

Argument of periapsis: 22.4086 deg

Mean anomaly: 337.7297 deg

Mean motion: 14.32760075 rev/day

Mean motion (dot): 0.00000273 rev/day2

B* drag term: 0.00011623 1/REarth

Two-line elements (TLE)

Creation date: July 5, 2025, 11:06 p.m.

Reference frame: TEME

Reference center: EARTH

Epoch: July 5, 2025, 10:01 p.m. UTC

TLE line 0: 0 YUNHAI 1-03

TLE line 1: 1 53877U 22115A 25186.91745140 .00000273 00000-0 11623-3 0 9992

TLE line 2: 2 53877 98.5376 184.7895 0004573 22.4086 337.7297 14.32760075145938

Live tracking on map

Real-time ground track for satellite YUNHAI 1-03.

In-orbit conjunctions

There are no conjunctions computed for YUNHAI 1-03, at the moment. Check back to stay up to date, as we update our databases every day.

Go to all conjunctions

Associated space launch

The Yunhai-1 satellite is designed for detecting environmental elements in the atmosphere and ocean, the space environment, disaster prevention and reduction, and scientific experimentation. It is made by the Shanghai Institute of Spaceflight Technology.

YUNHAI 1-03 was lifted into orbit during the mission ‘Long March 2D | Yunhai-1-03’, on board a Long March 2D space rocket.

The launch took place on Sept. 20, 2022, 11:15 p.m. from Launch Area 4 (SLS-2 / 603).

For more information about the launch, click the button.

Launch to space Long March 2D | Yunhai-1-03
Long March 2D | Yunhai-1-03

Agency: N/A

Status: Launch Successful

Launch date: Sept. 20, 2022, 11:15 p.m. UTC

Rocket: Long March 2D

Launch pad: Launch Area 4 (SLS-2 / 603)

Location: Jiuquan Satellite Launch Center, People's Republic of China

...

Latest news about this satellite

There are no fresh news available about this satellite. Check back as we update our databases every day.


Newsletter sign-up

Weekly statistics, charts and insights to help you stay on top of the space industry.